contact:dominique.lefevre@mio.osupytheas.fr, maurice.libes@osupytheas.fr, didier.mallarino@osupytheas.fr
Project:EMSO http://www.emso-fr.org/EMSO-France
Depth: 2436.0 m
Title:EMSO Ligure Ouest : Data MII capteur AQUADOPP
Date,Latitude,Longitude,X_East,Y_North,Z_Up,Amplitude_X,Amplitude_Y,Amplitude_Z,Batterie,SoundSpeed,Heading,Pitch,Roll,Pressure,TIS,Speed,Direction
, degrees North, degrees East, m.s-1, m.s-1,m.s-1, 1, 1, 1, Volt, m.s-1, degree, degree, degree, dbar, degree_C, m.s-1, degree
2022-01-27T00:04:03,42.805,6.029,-0.007,-0.032,-0.018,103.0,102.0,101.0,13.3,1505.2,326.3,-0.8,1.8,2470.656,13.28,0.032,192.3
2022-01-27T00:07:03,42.805,6.029,-0.016,-0.005,-0.017,104.0,102.0,102.0,13.4,1505.2,331.6,-0.8,1.8,2470.678,13.28,0.016,252.6
2022-01-27T00:10:03,42.805,6.029,-0.028,-0.016,-0.029,101.0,102.0,102.0,13.4,1505.2,325.8,-0.8,1.8,2470.69,13.28,0.032,240.3
2022-01-27T00:13:03,42.805,6.029,0.001,-0.017,-0.027,103.0,103.0,101.0,13.4,1505.2,325.2,-0.8,1.8,2470.674,13.28,0.017,176.6
2022-01-27T00:16:03,42.805,6.029,-0.003,-0.025,-0.036,101.0,103.0,102.0,13.4,1505.2,328.2,-0.7,1.8,2470.688,13.29,0.025,186.8
2022-01-27T00:19:03,42.805,6.029,-0.014,-0.018,-0.01,102.0,102.0,101.0,13.4,1505.2,331.1,-0.7,1.8,2470.611,13.29,0.022,217.9
2022-01-27T00:22:03,42.805,6.029,-0.014,-0.015,-0.052,103.0,103.0,101.0,13.4,1505.2,327.5,-0.8,1.8,2470.676,13.29,0.02,223.0
2022-01-27T00:25:03,42.805,6.029,0.0,-0.042,-0.006,103.0,103.0,103.0,13.4,1505.2,324.0,-0.8,1.8,2470.633,13.29,0.042,180.0
2022-01-27T00:28:03,42.805,6.029,-0.012,-0.047,0.0,103.0,103.0,103.0,13.4,1505.2,325.3,-0.8,1.8,2470.648,13.29,0.048,194.3
2022-01-27T00:31:03,42.805,6.029,-0.014,-0.021,-0.012,104.0,104.0,101.0,13.4,1505.2,327.8,-0.7,1.8,2470.647,13.29,0.025,213.7
2022-01-27T00:34:03,42.805,6.029,-0.005,-0.028,-0.008,104.0,102.0,102.0,13.4,1505.2,331.0,-0.8,1.8,2470.638,13.29,0.028,190.1
2022-01-27T00:37:03,42.805,6.029,-0.002,-0.024,-0.022,104.0,104.0,102.0,13.4,1505.2,329.4,-0.8,1.8,2470.64,13.29,0.024,184.8
2022-01-27T00:40:03,42.805,6.029,-0.02,-0.028,-0.011,105.0,105.0,103.0,13.3,1505.2,328.3,-0.7,1.8,2470.604,13.29,0.034,215.5
2022-01-27T00:43:03,42.805,6.029,0.005,-0.043,-0.025,105.0,104.0,103.0,13.4,1505.2,327.1,-0.8,1.8,2470.649,13.29,0.043,173.4
2022-01-27T00:46:03,42.805,6.029,-0.002,-0.017,-0.025,105.0,105.0,103.0,13.3,1505.2,328.7,-0.8,1.8,2470.649,13.29,0.017,186.7
2022-01-27T00:49:03,42.805,6.029,0.0,-0.02,-0.017,105.0,104.0,102.0,13.4,1505.2,325.1,-0.7,1.9,2470.664,13.29,0.02,180.0
2022-01-27T00:52:03,42.805,6.029,-0.028,-0.021,-0.005,104.0,104.0,103.0,13.4,1505.2,329.9,-0.8,1.8,2470.647,13.29,0.035,233.1
2022-01-27T00:55:03,42.805,6.029,-0.026,-0.02,-0.033,106.0,103.0,103.0,13.4,1505.2,325.2,-0.8,1.8,2470.614,13.29,0.032,232.4
2022-01-27T00:58:03,42.805,6.029,-0.037,-0.037,-0.039,105.0,105.0,102.0,13.4,1505.2,331.2,-0.7,1.8,2470.625,13.29,0.052,225.0
2022-01-27T01:04:03,42.805,6.029,-0.007,-0.01,-0.008,106.0,106.0,103.0,13.4,1505.2,327.7,-0.8,1.8,2470.654,13.28,0.012,215.0
2022-01-27T01:07:02,42.805,6.029,-0.031,-0.015,-0.025,105.0,104.0,103.0,13.4,1505.2,329.7,-0.7,1.8,2470.653,13.28,0.034,244.2
2022-01-27T01:10:03,42.805,6.029,-0.018,-0.027,-0.011,106.0,105.0,104.0,13.4,1505.2,325.1,-0.8,1.8,2470.647,13.28,0.032,213.7
2022-01-27T01:13:03,42.805,6.029,-0.035,-0.026,-0.025,106.0,104.0,103.0,13.4,1505.2,324.8,-0.7,1.8,2470.585,13.28,0.043,233.4
2022-01-27T01:16:03,42.805,6.029,-0.031,-0.025,-0.006,106.0,102.0,102.0,13.3,1505.2,324.8,-0.7,1.8,2470.623,13.28,0.039,231.1
2022-01-27T01:19:03,42.805,6.029,-0.021,-0.026,-0.023,104.0,103.0,103.0,13.4,1505.2,327.4,-0.8,1.8,2470.62,13.28,0.033,218.9
2022-01-27T01:22:03,42.805,6.029,-0.018,-0.004,0.002,104.0,105.0,103.0,13.3,1505.2,329.4,-0.8,1.8,2470.67,13.28,0.018,257.5
2022-01-27T01:25:03,42.805,6.029,-0.039,-0.009,-0.051,104.0,103.0,103.0,13.3,1505.2,329.7,-0.8,1.8,2470.624,13.29,0.04,257.0
2022-01-27T01:28:03,42.805,6.029,-0.003,-0.033,-0.044,105.0,103.0,103.0,13.3,1505.2,325.5,-0.8,1.8,2470.648,13.28,0.033,185.2
2022-01-27T01:31:03,42.805,6.029,-0.011,-0.018,-0.017,105.0,103.0,103.0,13.4,1505.2,324.3,-0.8,1.8,2470.626,13.28,0.021,211.4
2022-01-27T01:34:03,42.805,6.029,-0.004,-0.009,-0.01,105.0,103.0,102.0,13.4,1505.2,325.5,-0.8,1.8,2470.585,13.29,0.009,204.0
2022-01-27T01:37:03,42.805,6.029,-0.034,-0.025,-0.024,104.0,104.0,102.0,13.4,1505.2,327.1,-0.8,1.8,2470.577,13.29,0.042,233.7
2022-01-27T01:40:03,42.805,6.029,-0.034,-0.008,0.01,106.0,105.0,103.0,13.4,1505.2,327.2,-0.8,1.8,2470.633,13.29,0.034,256.8
2022-01-27T01:43:03,42.805,6.029,-0.016,-0.016,-0.009,105.0,106.0,103.0,13.4,1505.2,325.6,-0.8,1.8,2470.663,13.29,0.022,225.0
2022-01-27T01:46:03,42.805,6.029,-0.01,-0.031,-0.018,104.0,107.0,104.0,13.3,1505.2,325.5,-0.8,1.8,2470.657,13.29,0.032,197.9
2022-01-27T01:49:03,42.805,6.029,-0.004,-0.012,0.007,104.0,105.0,103.0,13.4,1505.2,327.6,-0.7,1.8,2470.668,13.29,0.012,198.4
2022-01-27T01:52:03,42.805,6.029,-0.02,-0.003,0.001,105.0,104.0,102.0,13.4,1505.2,329.0,-0.8,1.8,2470.631,13.28,0.02,261.5
2022-01-27T01:55:03,42.805,6.029,-0.038,-0.016,-0.037,104.0,105.0,104.0,13.4,1505.2,329.2,-0.8,1.8,2470.633,13.28,0.041,247.2
2022-01-27T01:58:03,42.805,6.029,-0.034,0.0,-0.029,104.0,104.0,103.0,13.3,1505.2,329.6,-0.8,1.8,2470.681,13.28,0.034,270.0
2022-01-27T02:04:03,42.805,6.029,-0.005,-0.012,-0.008,104.0,104.0,103.0,13.4,1505.2,331.8,-0.8,1.8,2470.662,13.28,0.013,202.6
2022-01-27T02:07:03,42.805,6.029,-0.018,0.0,0.0,105.0,104.0,102.0,13.4,1505.2,326.9,-0.7,1.8,2470.648,13.28,0.018,270.0
2022-01-27T02:10:03,42.805,6.029,-0.015,-0.006,-0.013,106.0,105.0,102.0,13.4,1505.2,323.9,-0.8,1.8,2470.631,13.28,0.016,248.2
2022-01-27T02:13:03,42.805,6.029,-0.049,-0.005,-0.01,104.0,103.0,102.0,13.3,1505.2,325.0,-0.7,1.8,2470.62,13.28,0.049,264.2
2022-01-27T02:16:03,42.805,6.029,-0.025,0.001,0.007,105.0,103.0,101.0,13.4,1505.2,327.1,-0.7,1.8,2470.607,13.28,0.025,272.3
2022-01-27T02:19:03,42.805,6.029,-0.021,-0.011,-0.029,105.0,104.0,102.0,13.3,1505.2,329.8,-0.7,1.8,2470.653,13.28,0.023,242.4
2022-01-27T02:22:03,42.805,6.029,-0.03,0.001,0.005,105.0,103.0,103.0,13.4,1505.2,324.4,-0.7,1.8,2470.605,13.28,0.03,271.9
2022-01-27T02:25:03,42.805,6.029,-0.036,-0.001,0.01,104.0,103.0,103.0,13.3,1505.2,325.0,-0.8,1.8,2470.639,13.28,0.036,268.4
2022-01-27T02:28:03,42.805,6.029,-0.029,-0.02,-0.021,104.0,104.0,102.0,13.4,1505.2,328.9,-0.7,1.8,2470.632,13.28,0.035,235.4
2022-01-27T02:31:03,42.805,6.029,-0.042,-0.005,-0.03,103.0,103.0,103.0,13.4,1505.2,329.4,-0.7,1.8,2470.595,13.28,0.042,263.2
2022-01-27T02:34:03,42.805,6.029,-0.007,0.002,0.004,106.0,102.0,103.0,13.4,1505.2,324.0,-0.8,1.8,2470.586,13.28,0.007,285.9
2022-01-27T02:37:03,42.805,6.029,-0.029,0.002,-0.021,103.0,104.0,104.0,13.4,1505.2,323.8,-0.7,1.8,2470.603,13.28,0.029,273.9
2022-01-27T02:40:03,42.805,6.029,-0.03,-0.011,-0.014,104.0,104.0,104.0,13.4,1505.2,328.1,-0.7,1.9,2470.609,13.28,0.031,249.9
2022-01-27T02:43:03,42.805,6.029,-0.042,-0.01,-0.046,106.0,104.0,103.0,13.4,1505.2,326.3,-0.8,1.8,2470.615,13.29,0.043,256.6
2022-01-27T02:46:03,42.805,6.029,-0.033,0.0,0.001,105.0,104.0,104.0,13.4,1505.2,327.9,-0.8,1.8,2470.637,13.28,0.033,270.0
2022-01-27T02:49:03,42.805,6.029,-0.033,-0.019,-0.017,104.0,104.0,103.0,13.4,1505.2,325.0,-0.7,1.8,2470.673,13.28,0.038,240.1
2022-01-27T02:52:03,42.805,6.029,-0.031,-0.007,-0.007,105.0,105.0,103.0,13.4,1505.2,325.1,-0.7,1.8,2470.597,13.28,0.031,257.3
2022-01-27T02:55:03,42.805,6.029,-0.036,-0.007,-0.003,105.0,105.0,102.0,13.3,1505.2,330.0,-0.7,1.8,2470.581,13.28,0.036,259.0
2022-01-27T02:58:03,42.805,6.029,-0.036,-0.008,-0.001,105.0,103.0,103.0,13.4,1505.2,326.4,-0.8,1.8,2470.571,13.28,0.036,257.5
2022-01-27T03:04:03,42.805,6.029,-0.035,-0.009,-0.007,104.0,103.0,104.0,13.4,1505.2,325.1,-0.7,1.8,2470.61,13.28,0.036,255.6
2022-01-27T03:07:03,42.805,6.029,-0.033,0.01,0.009,106.0,104.0,107.0,13.4,1505.2,324.2,-0.7,1.8,2470.626,13.28,0.034,286.9
2022-01-27T03:10:03,42.805,6.029,-0.044,-0.016,-0.016,105.0,105.0,106.0,13.3,1505.2,323.7,-0.8,1.8,2470.624,13.28,0.046,250.0
2022-01-27T03:13:03,42.805,6.029,-0.018,0.004,-0.009,105.0,105.0,104.0,13.4,1505.2,325.3,-0.7,1.8,2470.609,13.28,0.018,282.5
2022-01-27T03:16:03,42.805,6.029,-0.024,-0.008,-0.012,106.0,104.0,102.0,13.3,1505.2,329.5,-0.8,1.8,2470.611,13.28,0.025,251.6
2022-01-27T03:19:03,42.805,6.029,-0.054,0.0,-0.033,104.0,105.0,103.0,13.4,1505.2,327.7,-0.7,1.8,2470.578,13.28,0.053,270.0
2022-01-27T03:22:03,42.805,6.029,-0.055,0.016,0.019,105.0,102.0,103.0,13.4,1505.2,326.1,-0.8,1.8,2470.599,13.28,0.057,286.2
2022-01-27T03:25:03,42.805,6.029,-0.036,-0.011,0.02,105.0,104.0,103.0,13.3,1505.2,329.7,-0.8,1.8,2470.573,13.29,0.037,253.0
2022-01-27T03:28:03,42.805,6.029,-0.043,-0.013,-0.055,105.0,106.0,102.0,13.4,1505.2,328.7,-0.8,1.8,2470.581,13.29,0.044,253.2
2022-01-27T03:31:03,42.805,6.029,-0.022,-0.001,-0.011,106.0,105.0,103.0,13.3,1505.2,329.6,-0.8,1.8,2470.573,13.29,0.022,267.4
2022-01-27T03:34:03,42.805,6.029,-0.039,0.0,-0.02,105.0,105.0,102.0,13.4,1505.2,324.4,-0.8,1.8,2470.596,13.29,0.039,270.0
2022-01-27T03:37:03,42.805,6.029,-0.04,0.002,-0.006,103.0,104.0,102.0,13.3,1505.2,323.7,-0.7,1.8,2470.572,13.29,0.04,272.9
2022-01-27T03:40:03,42.805,6.029,-0.029,-0.003,-0.008,103.0,104.0,102.0,13.4,1505.2,328.8,-0.8,1.8,2470.604,13.29,0.029,264.1
2022-01-27T03:43:03,42.805,6.029,-0.042,-0.003,-0.041,106.0,103.0,103.0,13.4,1505.2,327.9,-0.8,1.8,2470.586,13.29,0.042,265.9
2022-01-27T03:46:03,42.805,6.029,-0.034,0.006,-0.022,105.0,102.0,103.0,13.4,1505.2,329.1,-0.8,1.8,2470.625,13.29,0.034,280.0
2022-01-27T03:49:03,42.805,6.029,-0.036,0.013,0.004,104.0,104.0,102.0,13.4,1505.2,329.3,-0.7,1.8,2470.58,13.29,0.038,289.9
2022-01-27T03:52:03,42.805,6.029,-0.044,0.014,-0.022,103.0,105.0,103.0,13.4,1505.2,328.7,-0.8,1.8,2470.596,13.29,0.046,287.6
2022-01-27T03:55:03,42.805,6.029,-0.015,0.014,-0.003,105.0,104.0,102.0,13.3,1505.2,324.2,-0.8,1.8,2470.62,13.29,0.02,313.0
2022-01-27T03:58:03,42.805,6.029,-0.04,0.019,-0.01,105.0,104.0,103.0,13.3,1505.2,326.0,-0.7,1.8,2470.593,13.29,0.044,295.4
2022-01-27T04:04:03,42.805,6.029,-0.043,0.016,-0.01,103.0,104.0,101.0,13.4,1505.2,325.2,-0.8,1.8,2470.591,13.28,0.045,290.4
2022-01-27T04:07:03,42.805,6.029,-0.034,-0.005,-0.035,104.0,103.0,102.0,13.3,1505.2,326.0,-0.8,1.8,2470.622,13.28,0.034,261.6
2022-01-27T04:10:03,42.805,6.029,-0.026,0.001,-0.002,104.0,102.0,101.0,13.4,1505.2,327.8,-0.8,1.8,2470.543,13.28,0.026,272.2
2022-01-27T04:13:03,42.805,6.029,-0.04,-0.005,0.001,104.0,104.0,103.0,13.4,1505.2,330.1,-0.8,1.8,2470.565,13.28,0.04,262.9
2022-01-27T04:16:03,42.805,6.029,-0.036,-0.009,-0.006,103.0,105.0,102.0,13.4,1505.2,328.6,-0.8,1.8,2470.604,13.28,0.037,256.0
2022-01-27T04:19:03,42.805,6.029,-0.03,0.011,-0.031,104.0,104.0,102.0,13.4,1505.2,323.8,-0.8,1.8,2470.634,13.28,0.031,290.1
2022-01-27T04:22:03,42.805,6.029,-0.028,-0.007,0.007,104.0,103.0,102.0,13.4,1505.2,330.2,-0.7,1.8,2470.586,13.29,0.028,256.0
2022-01-27T04:25:03,42.805,6.029,-0.026,0.014,-0.043,103.0,103.0,102.0,13.3,1505.2,331.4,-0.7,1.8,2470.62,13.29,0.029,298.3
2022-01-27T04:28:03,42.805,6.029,-0.031,0.014,0.01,104.0,103.0,102.0,13.3,1505.2,332.0,-0.7,1.9,2470.6,13.29,0.034,294.3
2022-01-27T04:31:03,42.805,6.029,-0.035,0.014,-0.031,104.0,102.0,101.0,13.3,1505.2,331.0,-0.7,1.8,2470.594,13.29,0.037,291.8
2022-01-27T04:34:03,42.805,6.029,-0.036,0.014,-0.013,103.0,103.0,101.0,13.3,1505.2,326.4,-0.7,1.8,2470.605,13.29,0.038,291.2
2022-01-27T04:37:03,42.805,6.029,-0.024,0.025,0.014,105.0,104.0,101.0,13.3,1505.2,329.7,-0.7,1.8,2470.575,13.29,0.034,316.2
2022-01-27T04:40:03,42.805,6.029,-0.012,0.012,0.014,103.0,103.0,103.0,13.4,1505.2,325.3,-0.7,1.8,2470.56,13.29,0.016,315.0
2022-01-27T04:43:03,42.805,6.029,-0.025,-0.009,-0.001,104.0,104.0,102.0,13.4,1505.2,323.6,-0.7,1.8,2470.579,13.29,0.026,250.2
2022-01-27T04:46:03,42.805,6.029,-0.032,0.005,-0.021,104.0,102.0,102.0,13.3,1505.2,331.0,-0.7,1.8,2470.581,13.29,0.032,278.9
2022-01-27T04:49:03,42.805,6.029,-0.049,0.003,-0.04,104.0,104.0,102.0,13.3,1505.2,328.5,-0.8,1.8,2470.598,13.29,0.049,273.5
2022-01-27T04:52:03,42.805,6.029,-0.055,0.0,-0.061,104.0,104.0,103.0,13.3,1505.2,331.1,-0.7,1.9,2470.601,13.29,0.055,270.0
2022-01-27T04:55:03,42.805,6.029,-0.009,0.011,0.001,105.0,104.0,102.0,13.4,1505.2,330.9,-0.8,1.8,2470.589,13.29,0.014,320.7
2022-01-27T04:58:03,42.805,6.029,-0.049,0.035,0.01,104.0,104.0,102.0,13.3,1505.2,327.5,-0.8,1.8,2470.584,13.29,0.06,305.5
2022-01-27T05:04:03,42.805,6.029,-0.026,0.006,0.002,104.0,104.0,103.0,13.4,1505.2,327.2,-0.7,1.8,2470.584,13.28,0.026,283.0
2022-01-27T05:07:03,42.805,6.029,-0.041,0.008,-0.027,104.0,104.0,101.0,13.4,1505.2,329.4,-0.7,1.8,2470.59,13.28,0.041,281.0
2022-01-27T05:10:03,42.805,6.029,-0.043,0.001,-0.03,107.0,103.0,103.0,13.3,1505.2,331.0,-0.8,1.8,2470.524,13.28,0.043,271.3
2022-01-27T05:13:03,42.805,6.029,-0.026,0.007,0.014,104.0,103.0,102.0,13.4,1505.2,325.6,-0.7,1.8,2470.581,13.28,0.026,285.1
2022-01-27T05:16:03,42.805,6.029,-0.041,-0.007,-0.02,102.0,103.0,102.0,13.3,1505.2,324.2,-0.8,1.8,2470.55,13.28,0.041,260.3
2022-01-27T05:19:03,42.805,6.029,-0.033,0.009,0.007,103.0,104.0,103.0,13.4,1505.2,325.7,-0.8,1.8,2470.584,13.28,0.034,285.3
2022-01-27T05:22:03,42.805,6.029,-0.032,-0.024,-0.032,105.0,104.0,101.0,13.4,1505.2,327.5,-0.7,1.8,2470.531,13.29,0.04,233.1
2022-01-27T05:25:03,42.805,6.029,-0.036,0.017,-0.022,103.0,103.0,102.0,13.4,1505.2,329.3,-0.8,1.8,2470.521,13.29,0.039,295.3
2022-01-27T05:28:03,42.805,6.029,-0.042,0.004,-0.004,105.0,104.0,102.0,13.4,1505.2,327.8,-0.7,1.8,2470.567,13.29,0.042,275.4
2022-01-27T05:31:03,42.805,6.029,-0.032,0.019,0.024,103.0,103.0,103.0,13.3,1505.2,328.6,-0.8,1.8,2470.548,13.29,0.037,300.7
2022-01-27T05:34:03,42.805,6.029,-0.02,0.011,-0.005,103.0,102.0,104.0,13.4,1505.2,329.4,-0.7,1.8,2470.555,13.29,0.022,298.8
2022-01-27T05:37:03,42.805,6.029,-0.051,0.016,-0.025,104.0,103.0,101.0,13.4,1505.2,331.0,-0.8,1.8,2470.579,13.29,0.053,287.4
2022-01-27T05:40:03,42.805,6.029,-0.035,0.017,-0.022,103.0,105.0,102.0,13.4,1505.2,325.7,-0.7,1.8,2470.592,13.29,0.038,295.9
2022-01-27T05:43:03,42.805,6.029,-0.028,0.027,-0.009,105.0,104.0,102.0,13.3,1505.2,329.1,-0.7,1.9,2470.602,13.29,0.038,314.0
2022-01-27T05:46:03,42.805,6.029,-0.039,-0.009,-0.035,103.0,103.0,101.0,13.3,1505.2,327.0,-0.7,1.8,2470.549,13.29,0.04,257.0
2022-01-27T05:49:03,42.805,6.029,-0.045,0.001,-0.037,104.0,104.0,102.0,13.4,1505.2,328.1,-0.7,1.9,2470.567,13.29,0.045,271.3
2022-01-27T05:52:03,42.805,6.029,-0.043,0.02,0.021,104.0,103.0,102.0,13.3,1505.2,328.4,-0.7,1.8,2470.588,13.29,0.047,294.9
2022-01-27T05:55:03,42.805,6.029,-0.021,0.012,0.0,104.0,103.0,103.0,13.4,1505.2,327.5,-0.8,1.8,2470.608,13.29,0.024,299.7
2022-01-27T05:58:03,42.805,6.029,-0.038,0.0,-0.016,103.0,103.0,101.0,13.4,1505.2,324.5,-0.8,1.9,2470.591,13.29,0.038,270.0
2022-01-27T06:04:03,42.805,6.029,-0.067,0.032,-0.03,103.0,102.0,102.0,13.4,1505.2,325.3,-0.8,1.8,2470.547,13.28,0.074,295.5
2022-01-27T06:07:03,42.805,6.029,-0.055,0.032,-0.018,103.0,103.0,103.0,13.4,1505.2,326.8,-0.8,1.8,2470.587,13.28,0.063,300.2
2022-01-27T06:10:03,42.805,6.029,-0.029,0.004,-0.013,103.0,104.0,102.0,13.4,1505.2,331.4,-0.8,1.9,2470.568,13.28,0.029,277.8
2022-01-27T06:13:03,42.805,6.029,-0.034,0.02,-0.018,105.0,103.0,101.0,13.4,1505.2,329.6,-0.8,1.8,2470.577,13.28,0.039,300.5
2022-01-27T06:16:03,42.805,6.029,-0.028,0.021,-0.001,103.0,104.0,102.0,13.3,1505.2,331.1,-0.8,1.8,2470.635,13.28,0.035,306.9
2022-01-27T06:19:03,42.805,6.029,-0.038,0.01,-0.016,104.0,103.0,103.0,13.3,1505.2,329.1,-0.7,1.8,2470.566,13.28,0.039,284.7
2022-01-27T06:22:03,42.805,6.029,-0.033,0.002,0.003,105.0,103.0,101.0,13.4,1505.2,326.2,-0.8,1.8,2470.559,13.28,0.033,273.5
2022-01-27T06:25:03,42.805,6.029,-0.042,0.008,0.005,104.0,104.0,102.0,13.4,1505.2,328.2,-0.8,1.8,2470.578,13.28,0.042,280.8
2022-01-27T06:28:03,42.805,6.029,-0.042,0.005,-0.023,103.0,103.0,101.0,13.4,1505.2,326.0,-0.7,1.8,2470.514,13.28,0.042,276.8
2022-01-27T06:31:03,42.805,6.029,-0.031,0.03,0.027,104.0,104.0,101.0,13.4,1505.2,327.6,-0.8,1.8,2470.546,13.28,0.043,314.1
2022-01-27T06:34:03,42.805,6.029,-0.039,0.019,-0.009,103.0,104.0,102.0,13.4,1505.2,331.9,-0.7,1.8,2470.552,13.29,0.043,296.0
2022-01-27T06:37:03,42.805,6.029,-0.037,-0.001,-0.006,104.0,105.0,102.0,13.4,1505.2,326.5,-0.8,1.8,2470.482,13.29,0.037,268.5
2022-01-27T06:40:03,42.805,6.029,-0.034,0.011,0.005,103.0,104.0,102.0,13.4,1505.2,326.3,-0.8,1.8,2470.528,13.29,0.035,287.9
2022-01-27T06:43:03,42.805,6.029,-0.056,0.04,0.042,104.0,103.0,101.0,13.4,1505.2,328.5,-0.8,1.8,2470.515,13.29,0.068,305.5
2022-01-27T06:46:03,42.805,6.029,-0.028,0.022,0.02,105.0,105.0,103.0,13.4,1505.2,326.9,-0.8,1.8,2470.518,13.29,0.035,308.2
2022-01-27T06:49:03,42.805,6.029,-0.024,0.002,0.017,105.0,105.0,102.0,13.4,1505.2,325.2,-0.8,1.8,2470.491,13.29,0.024,274.8
2022-01-27T06:52:03,42.805,6.029,-0.038,0.029,-0.003,102.0,105.0,104.0,13.4,1505.2,329.5,-0.7,1.8,2470.536,13.29,0.047,307.3
2022-01-27T06:55:03,42.805,6.029,-0.03,0.016,0.0,104.0,104.0,103.0,13.4,1505.2,327.5,-0.7,1.8,2470.537,13.29,0.034,298.1
2022-01-27T06:58:03,42.805,6.029,-0.045,-0.004,0.0,104.0,104.0,103.0,13.4,1505.2,325.5,-0.8,1.8,2470.53,13.29,0.045,264.9
2022-01-27T07:04:03,42.805,6.029,-0.039,0.022,-0.001,104.0,107.0,102.0,13.4,1505.2,328.8,-0.7,1.8,2470.462,13.28,0.044,299.4
2022-01-27T07:07:03,42.805,6.029,-0.025,-0.017,-0.011,106.0,103.0,102.0,13.4,1505.2,330.6,-0.8,1.8,2470.672,13.28,0.03,235.8
2022-01-27T07:10:03,42.805,6.029,-0.021,0.015,-0.01,104.0,103.0,103.0,13.3,1505.2,332.0,-0.7,1.8,2470.715,13.28,0.025,305.5
2022-01-27T07:13:03,42.805,6.029,-0.02,0.002,-0.013,103.0,103.0,104.0,13.3,1505.2,331.4,-0.8,1.8,2470.677,13.29,0.02,275.7
2022-01-27T07:16:03,42.805,6.029,-0.047,0.017,-0.003,103.0,102.0,103.0,13.4,1505.2,329.1,-0.7,1.8,2470.779,13.29,0.049,289.9
2022-01-27T07:19:03,42.805,6.029,-0.027,0.025,-0.007,103.0,103.0,101.0,13.3,1505.2,329.9,-0.7,1.8,2470.896,13.29,0.036,312.8
2022-01-27T07:22:03,42.805,6.029,-0.022,0.023,0.027,103.0,102.0,103.0,13.4,1505.2,328.9,-0.7,1.8,2471.075,13.29,0.031,316.3
2022-01-27T07:25:03,42.805,6.029,-0.034,0.028,0.01,104.0,103.0,103.0,13.4,1505.2,329.9,-0.8,1.8,2471.261,13.29,0.044,309.5
2022-01-27T07:28:03,42.805,6.029,-0.052,0.018,0.0,103.0,103.0,101.0,13.4,1505.2,324.9,-0.8,1.8,2470.95,13.29,0.055,289.1
2022-01-27T07:31:03,42.805,6.029,-0.042,0.012,-0.021,102.0,103.0,102.0,13.3,1505.2,327.8,-0.7,1.8,2470.239,13.29,0.043,285.9
2022-01-27T07:34:03,42.805,6.029,-0.039,0.008,-0.018,103.0,104.0,102.0,13.4,1505.2,324.1,-0.8,1.8,2470.34,13.29,0.039,281.6
2022-01-27T07:37:03,42.805,6.029,-0.056,0.025,0.016,103.0,103.0,102.0,13.4,1505.2,324.8,-0.8,1.8,2470.283,13.29,0.061,294.1
2022-01-27T07:40:03,42.805,6.029,-0.036,0.001,0.021,103.0,102.0,103.0,13.3,1505.2,324.7,-0.8,1.8,2470.292,13.29,0.036,271.6
2022-01-27T07:43:03,42.805,6.029,-0.053,0.039,0.012,103.0,102.0,103.0,13.4,1505.2,331.0,-0.7,1.8,2470.312,13.29,0.065,306.3
2022-01-27T07:46:03,42.805,6.029,-0.053,0.031,-0.021,103.0,103.0,101.0,13.4,1505.2,327.8,-0.8,1.8,2470.443,13.29,0.061,300.3
2022-01-27T07:49:03,42.805,6.029,-0.045,-0.003,-0.003,102.0,105.0,101.0,13.4,1505.2,328.0,-0.7,1.8,2470.589,13.29,0.045,266.2
2022-01-27T07:52:03,42.805,6.029,-0.039,0.01,0.01,103.0,103.0,101.0,13.4,1505.2,323.8,-0.8,1.8,2470.748,13.29,0.04,284.4
2022-01-27T07:55:03,42.805,6.029,-0.016,0.01,-0.001,104.0,103.0,101.0,13.4,1505.2,331.3,-0.8,1.9,2471.101,13.29,0.018,302.0
2022-01-27T07:58:03,42.805,6.029,-0.043,0.012,-0.008,104.0,102.0,102.0,13.3,1505.2,326.4,-0.7,1.8,2471.551,13.29,0.044,285.6
2022-01-27T08:04:03,42.805,6.029,-0.034,0.014,0.003,103.0,104.0,102.0,13.3,1505.2,328.7,-0.8,1.8,2470.946,13.28,0.036,292.4
2022-01-27T08:07:03,42.805,6.029,-0.045,0.012,-0.007,102.0,103.0,102.0,13.3,1505.2,331.3,-0.8,1.8,2470.683,13.28,0.046,284.9
2022-01-27T08:10:03,42.805,6.029,-0.035,0.015,-0.007,102.0,102.0,103.0,13.3,1505.2,330.8,-0.8,1.8,2470.532,13.28,0.038,293.2
2022-01-27T08:13:03,42.805,6.029,-0.04,0.025,0.017,103.0,103.0,101.0,13.3,1505.2,331.3,-0.7,1.8,2470.48,13.28,0.047,302.0
2022-01-27T08:16:03,42.805,6.029,-0.024,0.004,-0.023,104.0,102.0,102.0,13.4,1505.2,326.0,-0.7,1.9,2470.227,13.28,0.024,279.5
2022-01-27T08:19:03,42.805,6.029,-0.039,0.02,-0.015,103.0,104.0,101.0,13.4,1505.2,329.9,-0.8,1.8,2470.27,13.29,0.043,297.1
2022-01-27T08:22:03,42.805,6.029,-0.034,0.012,0.0,104.0,103.0,101.0,13.3,1505.2,327.6,-0.8,1.8,2470.253,13.29,0.036,289.4
2022-01-27T08:25:03,42.805,6.029,-0.033,-0.015,-0.027,103.0,103.0,102.0,13.3,1505.2,324.4,-0.8,1.8,2470.308,13.29,0.036,245.6
2022-01-27T08:28:03,42.805,6.029,-0.011,0.025,-0.022,104.0,102.0,102.0,13.4,1505.2,326.0,-0.8,1.8,2470.605,13.29,0.027,336.3
2022-01-27T08:31:03,42.805,6.029,-0.038,0.026,-0.004,102.0,103.0,100.0,13.4,1505.2,329.9,-0.7,1.8,2471.142,13.29,0.046,304.4
2022-01-27T08:34:03,42.805,6.029,-0.044,0.007,-0.006,103.0,104.0,101.0,13.4,1505.2,323.1,-0.7,1.8,2470.963,13.29,0.044,279.0
2022-01-27T08:37:03,42.805,6.029,-0.031,0.011,-0.024,102.0,103.0,102.0,13.4,1505.2,330.3,-0.8,1.8,2470.633,13.29,0.032,289.5
2022-01-27T08:40:03,42.805,6.029,-0.029,0.025,0.02,103.0,102.0,101.0,13.4,1505.2,326.7,-0.8,1.8,2470.756,13.29,0.038,310.8
2022-01-27T08:43:03,42.805,6.029,-0.017,0.005,-0.009,103.0,103.0,101.0,13.3,1505.2,323.6,-0.8,1.8,2470.605,13.29,0.017,286.4
2022-01-27T08:46:03,42.805,6.029,-0.034,0.004,0.009,103.0,104.0,101.0,13.4,1505.2,324.2,-0.8,1.8,2470.718,13.29,0.034,276.7
2022-01-27T08:49:03,42.805,6.029,-0.038,0.022,-0.032,101.0,103.0,102.0,13.4,1505.2,327.7,-0.8,1.8,2471.343,13.29,0.043,300.1
2022-01-27T08:52:03,42.805,6.029,-0.014,0.002,-0.008,103.0,104.0,101.0,13.3,1505.2,325.8,-0.8,1.9,2471.616,13.29,0.014,278.1
2022-01-27T08:55:03,42.805,6.029,-0.013,0.005,0.007,104.0,104.0,102.0,13.4,1505.2,331.2,-0.8,1.8,2471.984,13.29,0.013,291.0
2022-01-27T08:58:03,42.805,6.029,-0.026,0.022,0.011,102.0,103.0,102.0,13.4,1505.2,323.1,-0.7,1.8,2472.298,13.29,0.034,310.2
2022-01-27T09:04:03,42.805,6.029,-0.031,0.007,0.001,104.0,102.0,101.0,13.4,1505.2,331.5,-0.7,1.9,2472.917,13.28,0.031,282.7
2022-01-27T09:07:03,42.805,6.029,-0.014,0.009,0.026,103.0,103.0,102.0,13.4,1505.2,326.0,-0.7,1.8,2473.01,13.29,0.016,302.7
2022-01-27T09:10:03,42.805,6.029,-0.043,0.0,-0.024,102.0,102.0,102.0,13.3,1505.2,326.0,-0.7,1.8,2472.96,13.29,0.043,270.0
2022-01-27T09:13:03,42.805,6.029,-0.026,-0.01,-0.032,103.0,102.0,101.0,13.4,1505.2,328.9,-0.7,1.8,2471.922,13.29,0.027,249.0
2022-01-27T09:16:03,42.805,6.029,0.002,-0.008,0.004,104.0,102.0,105.0,13.3,1505.2,326.1,-0.7,1.8,2471.293,13.29,0.008,166.0
2022-01-27T09:19:03,42.805,6.029,-0.032,0.018,0.01,101.0,102.0,101.0,13.4,1505.2,330.4,-0.8,1.8,2471.038,13.29,0.036,299.4
2022-01-27T09:22:03,42.805,6.029,-0.037,0.005,-0.009,104.0,102.0,102.0,13.4,1505.2,324.2,-0.8,1.8,2471.202,13.29,0.037,277.7
2022-01-27T09:25:03,42.805,6.029,-0.014,0.017,-0.008,103.0,102.0,101.0,13.3,1505.2,326.8,-0.8,1.9,2471.746,13.29,0.022,320.5
2022-01-27T09:28:03,42.805,6.029,-0.005,0.006,0.013,103.0,101.0,102.0,13.3,1505.2,327.0,-0.8,1.8,2472.18,13.29,0.007,320.2
2022-01-27T09:31:03,42.805,6.029,-0.015,-0.015,-0.001,101.0,103.0,101.0,13.4,1505.2,330.9,-0.7,1.8,2472.48,13.29,0.021,225.0
2022-01-27T09:34:03,42.805,6.029,-0.016,-0.005,-0.013,107.0,103.0,102.0,13.4,1505.2,325.4,-0.8,1.8,2472.725,13.29,0.016,252.6
2022-01-27T09:37:03,42.805,6.029,-0.03,0.017,0.014,102.0,103.0,101.0,13.4,1505.2,327.9,-0.7,1.8,2472.812,13.29,0.034,299.5
2022-01-27T09:40:03,42.805,6.029,-0.007,-0.016,-0.021,102.0,102.0,101.0,13.3,1505.2,326.2,-0.8,1.8,2472.735,13.29,0.017,203.6
2022-01-27T09:43:03,42.805,6.029,-0.013,-0.01,-0.001,103.0,102.0,100.0,13.3,1505.2,329.0,-0.7,1.8,2472.698,13.29,0.016,232.4
2022-01-27T09:46:03,42.805,6.029,-0.022,0.006,0.016,102.0,102.0,102.0,13.4,1505.2,326.1,-0.8,1.8,2472.672,13.29,0.022,285.3
2022-01-27T09:49:03,42.805,6.029,-0.03,0.009,-0.008,102.0,102.0,100.0,13.4,1505.2,327.0,-0.7,1.8,2472.67,13.29,0.031,286.7
2022-01-27T09:52:03,42.805,6.029,-0.022,-0.001,-0.023,101.0,101.0,101.0,13.4,1505.2,326.8,-0.8,1.8,2472.564,13.29,0.022,267.4